Location: Newark
(44.9684°N, 1.0319°E)
Time: 13:29:05
(UTC+00:00)

Starlink (trailer) - Visible Passes

Search period start: 18 August 2019 00:00
Search period end: 28 August 2019 00:00
Orbit: 549 x 550 km, 53.0° (Epoch: 16 August)

Date Brightness Start Highest point End Pass type
(mag) Time Alt. Az. Time Alt. Az. Time Alt. Az.
18 Aug 3.6 20:24:34 10° WNW 20:28:44 85° SW 20:30:48 29° SE visible
18 Aug 6.1 22:05:20 10° W 22:06:27 13° WSW 22:06:27 13° WSW visible
19 Aug 3.8 20:19:11 10° WNW 20:23:18 66° SW 20:25:31 26° SE visible
19 Aug 6.3 22:00:58 10° WSW 22:01:10 10° WSW 22:01:10 10° WSW visible
20 Aug 4.2 20:13:50 10° WNW 20:17:51 50° SW 20:20:18 21° SSE visible
21 Aug 4.7 20:08:31 10° WNW 20:12:21 37° SW 20:15:09 16° SSE visible
22 Aug 5.2 20:03:16 10° WNW 20:06:51 28° SW 20:10:05 12° SSE visible
23 Aug 5.6 19:58:07 10° W 20:01:18 21° SW 20:04:29 10° S visible
24 Aug 6.1 19:53:09 10° W 19:55:44 16° SW 19:58:18 10° SSW visible
25 Aug 6.3 19:48:37 10° WSW 19:50:08 12° SW 19:51:39 10° SSW visible
